Theta_e
344 349 348 349 359 358 358 353 348 348 347 348 345 345 349 351 353 359 348 346 348 350 352 352 350 350 351 352 346 345 344 346 343 343 344 346 347 350 350 350 350 345 344 343 340 344 341 337 336
346 351 347 353 358 355 357 349 352 349 349 347 347 348 349 356 353 349 347 347 349 352 353 351 349 351 351 350 350 349 348 349 345 347 346 347 349 350 350 350 350 350 351 346 350 347 343 344 340
351 354 356 360 358 357 355 352 351 350 348 346 348 347 350 356 349 348 349 348 351 351 352 351 350 350 352 350 349 350 351 352 351 351 351 351 351 352 350 351 349 352 350 347 351 352 351 344 342
356 352 356 363 360 357 353 349 350 350 347 346 347 353 352 351 349 350 350 349 350 350 352 352 348 351 353 352 351 351 349 350 352 352 352 352 352 352 352 352 352 351 348 348 351 352 352 345 344
353 359 364 363 358 357 352 347 349 350 347 347 347 353 352 351 351 350 351 349 348 350 350 354 349 350 352 351 352 351 350 352 351 352 352 351 349 351 353 352 352 352 351 352 352 352 350 348 346
355 358 365 362 358 351 350 347 349 350 348 348 349 351 354 353 351 351 350 348 347 349 351 352 352 350 349 352 352 350 344 352 351 353 352 351 350 352 353 348 350 350 350 349 350 350 350 350 349
358 360 362 361 359 352 350 348 350 349 349 348 347 353 354 353 352 352 350 349 349 350 352 352 355 352 353 352 352 352 352 353 352 352 352 354 350 351 347 350 350 352 351 350 350 350 349 348 352
353 359 360 360 363 354 349 348 348 348 351 346 347 354 353 352 352 351 349 349 348 348 349 352 354 354 353 353 353 352 352 353 351 353 353 353 351 352 350 348 346 352 351 352 351 351 349 349 348
353 363 366 363 363 359 348 350 347 347 348 347 347 349 348 351 351 351 350 349 349 349 349 351 353 354 354 352 352 351 353 352 353 352 352 352 351 350 350 351 348 347 352 352 352 353 346 344 343
357 361 361 357 358 357 348 348 349 350 349 349 352 351 350 349 350 349 349 348 348 349 349 348 349 351 352 353 353 353 353 351 352 351 352 350 350 351 351 352 347 344 352 353 352 345 345 346 349
356 360 357 358 357 357 348 347 347 351 352 350 353 354 351 349 348 347 345 345 347 348 348 349 350 351 351 352 353 352 351 351 351 353 354 353 351 353 351 349 348 349 345 350 350 351 350 347 348
362 357 356 357 354 355 351 348 349 349 348 347 350 351 351 351 348 347 347 348 348 348 348 347 349 350 350 350 350 352 350 352 352 351 353 351 351 351 351 349 348 349 350 351 352 351 351 351 353
358 357 356 354 354 353 352 352 349 349 346 348 351 351 351 351 350 349 350 349 349 349 348 347 349 350 349 353 350 352 350 350 350 352 352 350 348 351 350 348 348 349 350 350 350 351 351 351 351
353 355 354 352 354 353 353 353 351 348 348 351 352 352 351 351 351 351 351 351 350 350 349 348 349 350 348 351 350 351 349 349 351 350 350 350 348 351 349 349 348 351 352 352 352 352 351 350 352
358 355 353 353 355 354 352 355 354 347 348 353 352 352 351 351 350 351 351 351 351 350 349 347 348 349 349 349 349 349 350 348 348 347 349 350 347 346 346 349 352 352 351 350 351 350 352 352 352
355 352 360 354 355 353 353 362 353 347 348 350 352 352 352 352 351 350 351 351 351 351 350 348 346 346 349 347 349 348 347 347 347 347 349 347 344 341 344 349 350 351 352 352 352 353 353 353 352
355 360 359 356 352 355 354 359 354 348 348 349 348 349 350 351 350 350 350 350 351 350 350 348 347 345 347 346 346 347 347 348 346 346 347 346 340 342 343 349 350 349 352 352 351 351 351 352 352
359 359 356 356 353 355 356 356 353 353 349 350 348 348 348 348 347 347 348 349 349 350 350 350 347 344 344 346 346 346 346 346 346 346 345 343 336 335 343 349 350 350 352 352 351 351 351 352 352
356 358 359 356 353 354 355 357 354 354 353 351 350 349 348 348 346 345 345 345 344 348 349 350 350 347 347 348 347 345 346 346 346 345 344 341 333 337 344 348 350 351 352 352 353 353 354 353 351
356 358 358 354 353 353 355 357 353 353 355 354 354 351 350 348 347 346 345 345 344 345 347 348 348 349 347 348 347 346 346 348 347 347 348 347 347 342 344 344 346 347 351 353 353 352 352 352 351
356 358 357 356 356 354 356 356 353 353 354 353 352 351 351 351 351 350 347 345 344 344 345 346 345 346 347 346 348 348 348 348 349 348 347 347 347 347 347 347 346 347 347 349 353 353 352 351 350
354 353 353 355 357 357 352 356 355 348 353 355 356 354 352 350 349 348 349 350 346 344 343 344 346 346 346 348 348 348 348 348 348 348 349 347 346 346 347 348 347 345 348 349 350 352 352 349 350
353 345 351 355 355 352 355 356 353 347 351 350 350 353 353 352 351 351 349 347 348 346 343 343 344 346 346 347 347 348 347 348 348 348 348 348 347 345 346 347 347 348 349 349 350 350 351 350 348
344 344 345 346 353 356 345 355 351 349 350 348 348 348 349 350 350 350 349 348 348 346 343 342 345 344 347 347 348 348 349 348 348 349 348 348 348 348 345 345 344 345 346 346 347 346 346 347 347
337 343 343 345 345 347 339 353 352 347 343 347 348 348 348 347 349 350 351 350 349 348 343 342 344 346 347 348 348 348 349 349 349 348 346 347 347 346 342 341 341 343 345 346 346 345 345 345 345
341 340 340 343 338 338 345 353 346 345 339 339 343 347 348 346 348 348 349 351 351 350 348 344 343 344 345 345 347 347 347 348 348 346 346 345 345 347 347 343 340 340 344 345 341 339 345 340 342
340 341 334 335 330 335 336 342 337 341 343 343 344 346 347 344 349 351 350 351 352 351 351 348 345 344 343 341 341 343 344 346 346 345 345 344 344 344 343 347 343 346 347 340 342 343 343 342 342
336 331 337 334 339 339 335 337 335 342 340 344 345 346 347 345 350 353 352 349 350 351 352 351 351 351 349 347 346 346 346 346 346 346 345 345 345 346 347 345 344 344 341 340 339 342 343 341 341
334 334 328 329 330 339 338 335 338 337 337 338 338 344 345 345 350 352 350 351 351 352 352 352 352 352 352 350 350 349 349 347 346 346 345 345 346 346 344 344 344 342 341 340 340 341 342 341 341
328 332 331 338 339 329 332 336 329 334 339 338 335 336 339 341 351 352 352 353 354 353 353 353 353 352 350 347 346 346 347 348 347 345 345 344 344 343 342 343 342 340 339 338 338 339 339 339 341
Wind_Speed
6 3 1 2 0 1 3 4 2 11 8 3 11 3 4 3 1 2 6 11 26 25 22 20 21 20 19 18 19 19 19 19 19 18 17 14 12 12 12 10 9 8 7 6 6 6 6 5 6
6 3 2 1 2 4 3 3 8 3 4 11 6 7 3 3 3 7 15 18 26 24 22 19 20 20 20 19 17 18 18 17 18 16 14 13 12 11 11 10 9 8 7 8 7 8 7 6 6
5 1 1 2 3 4 3 1 5 10 8 10 4 6 2 2 5 16 12 25 25 23 21 20 21 20 20 19 18 17 16 15 14 14 13 12 12 11 11 10 9 9 9 9 9 8 7 6 5
1 2 2 2 6 3 2 7 13 8 4 3 8 7 4 4 13 9 21 25 24 22 21 21 23 20 19 19 18 17 16 15 14 14 12 12 11 10 11 10 9 10 10 9 8 6 5 5 4
1 0 3 3 5 2 3 12 9 5 4 6 4 5 5 3 6 21 23 24 25 22 21 21 21 20 19 18 17 16 15 14 14 13 12 12 11 10 9 8 9 9 8 7 7 5 5 4 5
1 1 3 4 5 3 5 13 8 4 5 8 11 9 4 7 17 20 21 22 22 22 20 20 21 20 19 18 17 15 15 14 13 12 12 12 11 11 10 7 7 8 7 7 6 5 5 5 6
3 2 2 2 5 3 5 10 4 6 7 6 9 5 4 10 14 18 20 19 19 18 18 19 18 18 17 17 16 15 13 13 13 12 12 12 11 11 10 9 8 8 8 7 6 6 6 6 7
2 2 2 5 7 5 4 5 6 5 4 10 5 5 7 13 17 16 16 16 17 17 17 17 17 17 17 16 16 15 14 14 13 13 12 11 11 11 10 9 8 9 8 8 8 7 7 8 8
1 2 2 3 5 6 7 3 2 4 10 3 2 4 12 24 20 18 17 15 13 14 16 17 17 16 16 15 15 14 14 12 12 12 12 12 10 10 9 10 11 10 9 9 9 9 7 7 8
1 2 0 1 3 3 5 4 8 4 9 3 6 12 24 25 22 20 20 18 18 17 16 17 17 18 17 15 14 14 14 13 15 13 12 12 11 10 10 11 12 12 10 10 11 9 8 7 6
2 1 0 2 4 4 2 5 5 7 6 6 8 18 21 23 21 21 20 18 19 19 19 18 17 16 16 15 14 13 14 14 15 15 14 13 12 11 10 10 9 10 10 10 9 9 9 6 8
3 3 4 2 2 2 1 9 4 8 1 2 14 21 22 20 19 20 18 19 19 19 19 19 19 19 18 16 15 14 15 14 14 14 14 14 13 12 11 10 9 9 9 10 10 10 10 9 8
3 2 5 9 5 4 5 2 3 5 3 12 17 19 19 17 20 19 16 14 15 18 19 19 19 19 18 17 15 16 16 16 15 14 14 14 14 13 12 11 10 9 9 10 12 11 11 12 9
2 7 7 2 4 2 3 4 5 3 10 15 18 19 18 18 21 18 17 17 19 18 19 19 21 21 20 20 18 17 17 17 17 16 16 17 16 14 13 12 11 11 11 12 13 13 11 11 11
3 4 1 1 2 1 2 2 1 8 13 15 15 15 16 16 18 20 20 19 19 19 17 20 20 21 22 21 20 19 18 17 18 18 18 19 19 18 17 13 13 12 13 14 15 17 14 12 11
2 1 2 1 2 1 1 1 1 9 13 14 14 14 14 17 20 20 20 21 20 19 21 20 20 21 22 23 21 20 19 19 18 18 18 22 22 22 19 16 15 13 12 12 11 12 13 11 9
3 0 4 4 5 1 3 3 1 10 11 12 14 13 14 14 18 21 22 22 22 22 21 22 22 22 22 23 21 20 19 20 20 19 20 23 25 24 24 19 17 17 13 12 12 12 13 12 11
2 1 3 6 1 8 8 14 7 11 13 13 12 12 13 14 17 23 24 23 22 23 23 25 26 28 26 23 21 19 19 21 20 21 22 24 27 29 27 22 22 20 16 16 15 14 14 15 14
1 1 4 3 3 5 7 13 10 9 13 12 11 13 15 16 19 20 21 25 25 25 25 27 27 32 28 24 24 24 26 23 23 23 25 26 29 29 30 24 22 22 20 18 17 17 16 16 13
3 5 4 4 4 5 6 9 7 8 10 12 13 13 16 16 16 18 22 25 28 29 30 30 34 34 38 31 31 27 25 24 25 23 23 27 27 29 28 31 27 25 23 22 19 19 16 14 14
5 5 2 1 3 2 8 5 4 1 5 6 11 12 13 17 17 17 22 26 24 28 31 34 39 40 41 41 27 24 23 21 21 26 27 31 32 33 32 29 31 27 27 25 22 21 21 20 15
1 4 2 3 3 2 3 3 3 1 6 7 7 10 13 14 15 13 14 21 26 31 27 32 35 38 38 34 31 32 31 29 31 28 27 30 38 35 36 36 35 37 28 27 27 24 24 24 21
4 3 3 3 4 1 1 3 0 0 6 9 10 12 12 14 14 15 15 17 19 20 23 23 27 30 34 32 37 34 34 34 31 28 27 26 26 35 31 33 39 37 28 28 27 26 26 25 25
8 4 7 5 1 1 1 4 1 4 5 7 7 9 10 9 9 9 10 10 14 14 17 17 20 28 24 29 30 34 32 32 27 28 27 27 25 25 32 33 34 38 33 34 33 33 32 32 30
2 2 2 0 1 3 2 4 4 4 7 8 8 9 8 5 5 4 5 7 8 9 11 14 16 20 19 23 27 30 31 27 29 28 28 25 26 24 33 32 33 40 39 31 30 30 31 27 29
1 2 2 3 4 3 3 3 1 4 5 11 11 9 5 4 4 3 3 5 4 5 7 10 12 13 15 18 22 26 29 29 29 32 32 38 37 30 25 29 30 34 38 34 25 26 23 28 36
4 2 2 3 1 3 0 3 10 3 4 4 8 9 11 8 6 5 5 7 6 4 4 5 6 7 10 14 18 22 26 28 30 30 32 33 37 35 39 26 27 27 23 24 18 18 25 21 33
3 6 2 1 3 5 1 4 5 8 11 8 10 14 13 6 6 6 6 10 8 6 6 5 4 3 4 7 11 13 15 18 23 25 29 29 29 27 25 23 24 23 26 22 14 15 19 21 25
1 1 4 2 3 5 7 4 3 4 8 10 13 15 13 8 7 8 6 6 8 6 5 3 2 2 2 3 5 7 10 14 16 19 21 23 23 23 22 21 20 23 20 15 13 17 19 24 26
1 2 2 4 1 1 3 5 4 5 9 9 14 14 14 8 8 8 6 4 5 5 5 3 2 2 2 4 5 7 9 11 14 16 19 19 21 22 22 20 19 20 16 15 15 16 17 18 16
Wind_Direction
150 153 44 142 105 87 63 67 74 114 148 149 154 176 178 66 240 25 142 154 151 153 157 158 152 145 147 151 153 151 152 156 164 173 172 168 171 171 179 184 187 186 187 192 191 186 193 208 231
152 130 94 109 60 82 83 33 109 125 120 136 121 125 103 90 67 120 142 152 153 151 155 156 154 151 154 154 156 156 156 156 162 170 176 175 176 176 184 190 195 201 202 202 204 203 207 203 210
121 139 258 76 87 60 91 120 121 116 124 147 112 59 49 61 113 143 147 151 153 153 156 159 155 159 159 160 161 162 161 161 164 171 174 177 181 184 193 198 204 205 211 213 203 198 200 210 202
92 171 110 54 58 76 69 133 132 128 97 89 117 89 92 337 150 159 149 152 154 156 159 166 162 164 163 165 168 170 174 174 177 179 179 185 187 189 199 197 199 209 209 208 205 202 213 213 217
12 336 57 75 53 68 152 149 159 136 122 135 150 112 96 81 130 146 151 157 159 160 163 168 171 169 169 169 169 171 177 178 182 184 183 184 187 183 187 192 199 202 195 203 208 209 219 217 216
81 330 52 58 36 80 129 167 167 135 134 131 117 114 109 135 145 154 156 162 166 162 165 174 179 179 178 173 175 182 185 183 187 186 184 190 188 185 181 187 190 194 196 201 200 208 227 236 236
88 63 88 39 27 87 133 170 162 125 137 139 139 108 103 157 160 158 159 163 166 166 168 174 181 185 184 181 184 188 187 186 190 190 190 192 191 192 190 195 197 196 200 203 208 217 230 250 256
82 96 63 35 13 45 125 136 128 126 89 129 148 152 161 168 162 158 156 163 166 173 176 177 183 188 189 193 193 194 193 194 196 195 197 190 199 198 196 207 212 212 216 223 224 235 248 255 252
298 72 40 41 18 338 161 138 140 89 141 151 57 123 141 149 154 154 157 166 174 181 185 186 186 188 190 192 202 201 201 200 201 201 202 203 202 206 212 214 226 227 235 242 247 249 255 264 268
352 88 25 128 317 341 167 181 155 153 157 109 87 97 135 147 157 162 171 178 185 189 195 197 196 196 195 195 197 199 201 203 202 205 204 209 215 211 209 219 231 239 252 258 263 261 259 263 257
32 19 129 179 288 298 121 149 153 146 191 202 167 147 152 157 167 174 184 186 190 193 194 198 202 201 200 200 202 204 205 206 209 209 208 208 215 221 224 228 234 241 242 252 265 274 267 264 260
283 298 263 319 9 315 184 138 172 198 128 221 157 160 160 167 177 185 187 188 189 195 203 203 206 206 205 205 206 208 208 212 215 216 216 219 220 226 224 228 234 240 247 262 268 273 279 279 269
247 281 309 293 297 191 156 195 206 190 74 130 144 158 167 174 183 196 197 196 196 199 203 206 207 209 209 213 214 213 214 216 220 224 225 223 223 225 228 225 232 239 249 260 269 267 273 280 275
322 310 294 310 46 113 132 122 169 119 139 142 156 167 174 184 190 193 199 201 203 205 206 207 210 209 211 214 217 219 219 220 222 224 225 226 226 231 231 232 234 243 251 263 271 275 274 275 279
312 335 323 53 325 68 13 179 165 153 155 155 171 174 180 194 197 204 208 214 211 211 208 208 210 213 215 218 223 224 224 227 229 230 230 230 230 232 228 235 240 247 256 266 269 273 276 277 276
33 64 220 285 297 63 236 255 201 162 168 171 180 179 192 198 208 211 214 222 219 216 213 211 211 215 219 221 223 224 228 226 229 231 234 233 231 232 235 241 246 250 256 260 262 267 273 269 265
20 309 233 295 222 258 241 265 105 177 192 194 186 190 198 209 216 221 223 224 224 221 218 217 215 217 220 225 227 231 233 232 231 232 234 235 231 231 234 240 247 255 258 254 259 265 258 267 268
16 233 212 241 236 215 244 265 255 199 206 211 203 198 206 210 221 222 226 228 228 227 223 224 221 221 223 223 226 233 235 236 233 233 233 234 233 232 233 241 248 249 252 256 256 253 256 263 267
208 280 298 254 258 240 247 263 277 208 210 220 213 210 219 225 225 227 230 230 229 229 225 224 220 224 219 216 217 222 228 231 233 231 231 234 234 233 235 237 245 250 249 251 249 254 254 255 250
256 312 319 292 310 239 334 317 320 190 218 213 221 223 228 232 234 237 232 226 224 225 221 223 225 223 223 219 219 218 228 234 235 236 237 237 237 238 237 240 240 243 246 251 248 243 249 247 235
259 250 229 298 53 251 319 311 346 22 263 234 231 232 235 235 231 235 234 232 229 229 221 222 227 226 225 222 217 222 230 238 236 235 239 239 239 241 244 242 244 242 244 245 245 244 238 243 242
330 216 213 158 187 19 335 341 291 302 272 255 234 226 228 224 227 237 230 228 229 233 231 228 226 226 226 219 214 213 217 226 232 236 240 239 244 246 248 249 246 250 244 241 238 242 242 241 240
38 96 107 132 123 277 103 264 333 332 231 235 227 228 235 232 235 237 233 233 237 235 231 231 228 228 226 218 217 217 222 229 235 239 236 236 239 248 250 250 251 251 248 248 243 238 235 235 234
158 113 83 80 112 214 15 255 217 199 228 212 220 228 226 232 236 251 252 245 244 242 236 234 229 235 229 223 225 224 228 229 229 232 229 234 238 242 251 254 256 256 249 254 253 249 244 242 233
175 323 345 177 212 40 351 204 286 251 245 252 254 233 236 167 189 205 214 214 231 230 228 229 232 240 233 230 230 231 235 238 236 236 230 229 236 240 250 252 257 260 255 247 250 261 262 252 237
205 302 312 317 330 23 95 232 103 222 279 272 255 253 235 166 169 158 213 173 179 199 218 226 233 243 238 240 240 237 239 239 240 240 238 241 240 247 252 258 260 257 246 246 247 270 259 278 251
137 214 62 118 108 260 93 261 274 281 298 282 245 233 233 189 174 168 197 153 132 148 166 196 218 245 250 254 255 254 249 243 244 245 247 245 248 247 251 246 248 244 230 233 247 254 264 255 240
292 132 242 247 261 276 234 278 280 346 342 318 261 236 233 208 174 161 166 136 126 127 129 124 144 184 244 252 253 257 258 254 254 249 245 245 246 243 241 236 237 227 227 229 242 256 251 253 234
72 165 58 109 335 294 290 282 175 311 306 292 278 265 256 227 197 171 162 135 129 130 118 107 139 162 202 249 261 264 262 260 257 253 253 251 249 243 239 232 216 214 221 224 224 222 228 236 232
41 46 14 334 24 51 317 276 196 280 290 269 278 267 260 248 208 187 173 149 146 134 122 134 177 198 235 275 284 285 286 275 263 259 263 254 243 242 237 220 208 209 207 217 216 228 225 232 231